Home   Weather   Palma   Past weeks

Flag for Spain Past Weather in Palma, Majorca, Spain — Yesterday and Last 2 Weeks

Now
61 °F

Passing clouds.


Feels Like: 61 °F
Forecast: 40 / 66 °F
Wind: 10 mph from West

Location: Palma De Mallorca / Son San Juan

Current Time: Feb 20, 2017 at 4:48:26 pm

Latest Report: Feb 20, 2017 at 4:00 pm


Visibility: N/A

Pressure: 30.24 "Hg

Humidity: 63%

Dew Point: 48 °F

Location of PalmaLocation

Past Weather in Palma — Graph

°F

Palma Temperature Yesterday

Maximum temperature yesterday: 61 °F (at 12:00 pm)
Minimum temperature yesterday: 45 °F (at 2:00 am)
Average temperature yesterday: 52 °F

High & Low Weather Summary for the Past Weeks

 TemperatureHumidityPressure
High66 °F (Feb 7, 12:00 pm)100% (Feb 9, 1:30 am)30.51 "Hg (Feb 9, 1:30 am)
Low36 °F (Feb 9, 6:00 am)32% (Feb 12, 3:00 pm)29.77 "Hg (Feb 5, 3:00 pm)
Average53 °F80%30.13 "Hg
* Reported Feb 5 3:00 pm — Feb 20 3:30 pm, Palma, Weather by CustomWeather, © 2017

Note: Actual official high and low records may vary slightly from our data, if they occured in-between our weather recording intervals... More about our weather records

Advertising

Palma Weather History for the Previous 24 Hours

Scroll right to see more
 ConditionsComfort  
Time TempWeatherWind HumidityBarometerVisibility
3:30 pm
Mon, Feb 20
61 °FPassing clouds.10 mph68%30.24 "HgN/A
3:00 pm61 °FPassing clouds.8 mph68%30.27 "HgN/A
2:30 pm61 °FPassing clouds.5 mph68%30.27 "HgN/A
2:00 pm63 °FPassing clouds.8 mph52%30.27 "HgN/A
1:30 pm63 °FPassing clouds.3 mph56%30.30 "HgN/A
1:00 pm61 °FPassing clouds.8 mph59%30.30 "HgN/A
12:30 pm61 °FPassing clouds.7 mph63%30.30 "HgN/A
12:00 pm59 °FPassing clouds.7 mph68%30.33 "HgN/A
11:30 am59 °FPassing clouds.5 mph72%30.33 "HgN/A
11:00 am57 °FPassing clouds.2 mph77%30.33 "HgN/A
10:30 am55 °FPassing clouds.1 mph82%30.33 "HgN/A
10:00 am52 °FPassing clouds.3 mph88%30.33 "HgN/A
9:30 am48 °FPassing clouds.2 mph94%30.33 "HgN/A
9:00 am45 °FPassing clouds.2 mph100%30.33 "HgN/A
8:30 am41 °FPassing clouds.3 mph100%30.30 "HgN/A
8:00 am39 °FPassing clouds.2 mph100%30.30 "HgN/A
7:30 am39 °FPassing clouds.1 mph93%30.27 "HgN/A
7:00 am39 °FPassing clouds.3 mph93%30.27 "HgN/A
6:30 am39 °FPassing clouds.3 mph93%30.27 "HgN/A
6:00 am39 °FPassing clouds.2 mph100%30.27 "HgN/A
5:30 am41 °FPassing clouds.1 mph93%30.27 "HgN/A
5:00 am41 °FPassing clouds.2 mph93%30.27 "HgN/A
4:00 am41 °FPassing clouds.5 mph93%30.27 "HgN/A
3:30 am43 °FPassing clouds.2 mph93%30.27 "HgN/A
3:00 am43 °FPassing clouds.1 mph93%30.27 "HgN/A
2:30 am43 °FPassing clouds.1 mph93%30.27 "HgN/A
2:00 am43 °FPassing clouds.No wind87%30.27 "HgN/A
1:30 am43 °FPassing clouds.No wind93%30.27 "HgN/A
1:00 am45 °FPassing clouds.No wind87%30.27 "HgN/A
12:30 am46 °FPassing clouds.No wind87%30.30 "HgN/A
12:00 am46 °FPassing clouds.No wind87%30.30 "HgN/A
11:30 pm
Sun, Feb 19
46 °FPassing clouds.No wind87%30.30 "HgN/A
11:00 pm46 °FPassing clouds.1 mph87%30.30 "HgN/A
10:30 pm48 °FPassing clouds.No wind87%30.30 "HgN/A
10:00 pm48 °FPassing clouds.3 mph87%30.27 "HgN/A
9:30 pm48 °FPassing clouds.3 mph87%30.27 "HgN/A
9:00 pm50 °FPassing clouds.7 mph82%30.27 "HgN/A
8:30 pm52 °FPassing clouds.3 mph82%30.27 "HgN/A
8:00 pm54 °FPassing clouds.2 mph77%30.27 "HgN/A
7:30 pm54 °FPartly cloudy.2 mph77%30.24 "HgN/A
7:00 pm55 °FPartly cloudy.6 mph72%30.24 "HgN/A
6:30 pm57 °FPassing clouds.1 mph67%30.24 "HgN/A
6:00 pm57 °FBroken clouds.1 mph67%30.24 "HgN/A
5:30 pm57 °FBroken clouds.1 mph72%30.21 "HgN/A
5:00 pm57 °FBroken clouds.3 mph67%30.24 "HgN/A
4:30 pm57 °FBroken clouds.8 mph67%30.24 "HgN/A
4:00 pm59 °FBroken clouds.7 mph68%30.24 "HgN/A
Weather by CustomWeather, © 2017

See weather overviewHow to use our weather pages